This is the latest recevied weather packets stored in our database for station/object IZ3LCH-13. If no packets are shown the sender has not sent any weather packets the latest 10 day(s).
| Time | Temp. | Humidity | Pressure | Rain* | Wind** | Luminosity | Snow |
|---|---|---|---|---|---|---|---|
| 1777625403 | 17.22° C | 39% | 1028.1 hPa | 0 mm | - | - | - |
| 1777625103 | 17.22° C | 38% | 1028 hPa | 0 mm | - | - | - |
| 1777624803 | 17.22° C | 39% | 1027.9 hPa | 0 mm | - | - | - |
| 1777624503 | 17.22° C | 37% | 1027.9 hPa | 0 mm | - | - | - |
| 1777624203 | 16.67° C | 40% | 1028 hPa | 0 mm | - | - | - |
| 1777623903 | 16.67° C | 39% | 1028.2 hPa | 0 mm | - | - | - |
| 1777623603 | 16.67° C | 37% | 1028.2 hPa | 0 mm | - | - | - |
| 1777623303 | 16.67° C | 37% | 1027.9 hPa | 0 mm | - | - | - |
| 1777623003 | 16.67° C | 40% | 1028 hPa | 0 mm | - | - | - |
| 1777622703 | 16.11° C | 39% | 1027.8 hPa | 0 mm | - | - | - |
| 1777622403 | 16.11° C | 39% | 1028 hPa | 0 mm | - | - | - |
| 1777622103 | 15.56° C | 40% | 1027.8 hPa | 0 mm | - | - | - |
| 1777621803 | 15.56° C | 39% | 1027.9 hPa | 0 mm | - | - | - |
| 1777621503 | 15.56° C | 39% | 1027.8 hPa | 0 mm | - | - | - |
| 1777621203 | 15.56° C | 38% | 1028 hPa | 0 mm | - | - | - |
| 1777620903 | 15.56° C | 39% | 1027.6 hPa | 0 mm | - | - | - |
| 1777620603 | 15.56° C | 41% | 1027.8 hPa | 0 mm | - | - | - |
| 1777620303 | 15° C | 40% | 1027.9 hPa | 0 mm | - | - | - |
| 1777620003 | 15° C | 39% | 1027.6 hPa | 0 mm | - | - | - |
| 1777619703 | 14.44° C | 41% | 1027.7 hPa | 0 mm | - | - | - |
| 1777619403 | 14.44° C | 42% | 1027.7 hPa | 0 mm | - | - | - |
| 1777619103 | 14.44° C | 40% | 1027.7 hPa | 0 mm | - | - | - |
| 1777618803 | 14.44° C | 41% | 1027.8 hPa | 0 mm | - | - | - |
| 1777618503 | 14.44° C | 43% | 1027.5 hPa | 0 mm | - | - | - |
| 1777618203 | 13.89° C | 44% | 1027.7 hPa | 0 mm | - | - | - |
* Rain latest hour (hover to see other rain measurements)
** Current wind speed in m/s (hover to see current wind gust speed)